Location: Unspecified
(47.9110°N, 14.3980°E)
Time: 17:52:27
(UTC+00:00)

EO 1 Del DPAF - Pass Details

Date: 06 August 2020
Orbit: 514 x 515 km, 98.0° (Epoch: 24 September)

Event Time Altitude Azimuth Distance (km) Brightness Sun altitude
Rises 22:27:25 0° 10° (N) 2,645 7.9 -25.1°
Reaches altitude 10° 22:29:32 10° 6° (N) 1,753 6.8 -25.1°
Enters shadow 22:32:40 50° 326° (NNW) 663 4.0 -25.2°
